Location: Amherst
(42.3800°N, 72.5240°W)
Time: 00:59:11
(UTC-04:00)

ISS - Visible Passes

Search period start: 18 May 2021 00:00
Search period end: 28 May 2021 00:00
Orbit: 417 x 422 km, 51.6° (Epoch: 18 May)

Date Brightness Start Highest point End Pass type
(mag) Time Alt. Az. Time Alt. Az. Time Alt. Az.
18 May -1.0 01:33:38 10° NW 01:34:27 15° NNW 01:34:27 15° NNW visible
18 May -1.8 21:30:44 10° W 21:33:49 32° NNW 21:36:55 10° NE visible
18 May -0.8 23:09:04 10° NW 23:11:22 17° N 23:13:41 10° NE visible
19 May -1.1 00:46:15 10° NW 00:48:08 21° N 00:48:08 21° N visible
19 May -2.5 20:43:01 10° WSW 20:46:16 46° NNW 20:49:32 10° NE visible
19 May -0.9 22:21:15 10° NW 22:23:41 18° N 22:26:07 10° NE visible
19 May -1.2 23:58:49 10° NW 00:01:24 20° NNE 00:01:58 19° NNE visible
20 May -1.0 21:33:23 10° WNW 21:36:01 21° NNW 21:38:38 10° NE visible
20 May -0.9 23:11:19 10° NW 23:13:42 18° N 23:15:53 11° NE visible
21 May -1.0 00:47:57 10° NW 00:48:49 16° NW 00:48:49 16° NW visible
21 May -1.3 20:45:31 10° WNW 20:48:22 25° NNW 20:51:13 10° NE visible
21 May -0.9 22:23:44 10° NW 22:26:01 17° N 22:28:17 10° NE visible
22 May -1.6 00:00:34 10° NW 00:02:47 26° N 00:02:47 26° N visible
22 May -0.9 21:36:00 10° NW 21:38:18 17° N 21:40:36 10° NE visible
22 May -1.6 23:13:10 10° NW 23:15:58 23° NNE 23:16:46 21° NE visible
23 May -1.0 20:48:10 10° NW 20:50:36 18° N 20:53:01 10° NE visible
23 May -1.3 22:25:44 10° NW 22:28:18 20° NNE 22:30:47 10° ENE visible
24 May -1.5 00:02:15 10° NW 00:03:43 23° NW 00:03:43 23° NW visible
24 May -1.1 21:38:14 10° NW 21:40:37 18° N 21:42:59 10° NE visible
24 May -2.5 23:14:51 10° NW 23:17:45 40° N 23:17:45 40° N visible
25 May -1.0 20:50:37 10° NW 20:52:54 17° N 20:55:10 10° NE visible
25 May -2.1 22:27:27 10° NW 22:30:29 30° NNE 22:31:49 22° ENE visible
26 May -1.0 00:04:08 10° WNW 00:04:46 14° WNW 00:04:46 14° WNW visible
26 May -1.7 21:40:02 10° NW 21:42:51 23° NNE 21:45:38 10° ENE visible
26 May -2.6 23:16:34 10° WNW 23:18:51 40° WNW 23:18:51 40° WNW visible
27 May -1.4 20:52:35 10° NW 20:55:09 20° NNE 20:57:43 10° ENE visible
27 May -3.5 22:29:07 10° NW 22:32:28 63° NNE 22:32:58 53° ENE visible
